Regional Weather Roundup
Issued by NWS Little Rock, AR

Home | Current Version | Previous Version | Text Only | Print | Product List | Glossary Off
Versions: 1 2 3 4 5 6 7 8 9 10 11 12 13 14 15 16 17 18 19 20 21 22 23 24 25 26 27 28 29 30 31 32

000
ASUS44 KLZK 111805
RWRLZK

WEATHER ROUNDUP FOR ARKANSAS
NATIONAL WEATHER SERVICE LITTLE ROCK AR
1200 PM CST MON DEC 11 2017

NOTE: "FAIR" INDICATES FEW OR NO CLOUDS BELOW 12,000 FEET WITH NO
SIGNIFICANT WEATHER AND/OR OBSTRUCTIONS TO VISIBILITY.

ARZ001-003-010-029-111900-
NORTHWEST ARKANSAS

CITY           SKY/WX    TMP DP  RH WIND       PRES   REMARKS
FAYETTEVILLE   SUNNY     67  16  14 W13       30.05F
6HR MIN TEMP:  25; 6HR MAX TEMP:  67;

FORT SMITH     SUNNY     64  22  20 W15       30.08F
6HR MIN TEMP:  28; 6HR MAX TEMP:  64;

HARRISON       SUNNY     68  10  10 W18G36    29.98F
6HR MIN TEMP:  49; 6HR MAX TEMP:  69;

BENTONVILLE    SUNNY     63  19  18 W10G18    30.05  HAZE
6HR MIN TEMP:  36; 6HR MAX TEMP:  63;

ROGERS         SUNNY     63  19  18 W13       30.03F
6HR MIN TEMP:  43; 6HR MAX TEMP:  63;

SILOAM SPGS    SUNNY     64  21  19 W12       30.06F
6HR MIN TEMP:  37; 6HR MAX TEMP:  64;

HIGHFILL       SUNNY     64  20  18 W13       30.05F
6HR MIN TEMP:  36; 6HR MAX TEMP:  64;

$$

ARZ004-005-016-111900-
NORTH CENTRAL ARKANSAS

CITY           SKY/WX    TMP DP  RH WIND       PRES   REMARKS
BATESVILLE     SUNNY     66  24  20 SW12      30.00F
6HR MIN TEMP:  32; 6HR MAX TEMP:  66;

MTN HOME       SUNNY     71  12  10 NW12G18   29.95F
6HR MIN TEMP:  33; 6HR MAX TEMP:  71;

$$

ARZ040-041-111900-
WEST CENTRAL ARKANSAS

CITY           SKY/WX    TMP DP  RH WIND       PRES   REMARKS
MENA           SUNNY     72  10   9 SW10      30.12F
MOUNT IDA      SUNNY     73  25  16 VRB7      30.07F
6HR MIN TEMP:  29; 6HR MAX TEMP:  73;

$$

ARZ009-017-025-026-028-111900-
NORTHEAST ARKANSAS

CITY           SKY/WX    TMP DP  RH WIND       PRES   REMARKS
JONESBORO      SUNNY     60  35  39 SW17      30.00F
6HR MIN TEMP:  36; 6HR MAX TEMP:  60;

NEWPORT        SUNNY     64  33  31 S16       30.01F
6HR MIN TEMP:  31; 6HR MAX TEMP:  64;

WALNUT RIDGE   SUNNY     63  30  28 SW18      29.97F
6HR MIN TEMP:  30; 6HR MAX TEMP:  63;

BLYTHEVILLE    SUNNY     60  35  39 SW15G26   30.01F
6HR MIN TEMP:  33; 6HR MAX TEMP:  60;

NW BLYTHEVILLE SUNNY     59  34  38 SW16G25   30.01F
$$

ARZ022-023-033-042-044-111900-
CENTRAL ARKANSAS

CITY           SKY/WX    TMP DP  RH WIND       PRES   REMARKS
LITTLE ROCK    SUNNY     68  24  19 SW12      30.08F
6HR MIN TEMP:  34; 6HR MAX TEMP:  68;

N LITTLE ROCK    N/A     67  27  22 SW9       30.09F
6HR MIN TEMP:  43; 6HR MAX TEMP:  67;

JACKSONVILLE   SUNNY     69  27  21 SW8       30.05F
6HR MIN TEMP:  27; 6HR MAX TEMP:  69;

SEARCY         SUNNY     66  27  23 SW9       30.05F
6HR MIN TEMP:  27; 6HR MAX TEMP:  66;

HOT SPRINGS    SUNNY     69  23  17 SW7       30.10F
6HR MIN TEMP:  31; 6HR MAX TEMP:  69;

RUSSELLVILLE   SUNNY     60  26  27 W5        30.06F
6HR MIN TEMP:  26; 6HR MAX TEMP:  60;

CLINTON        FAIR      66  23  19 SW8G15    30.03F
$$

ARZ036-111900-
EAST ARKANSAS

CITY           SKY/WX    TMP DP  RH WIND       PRES   REMARKS
WEST MEMPHIS   SUNNY     60  34  37 SW7       30.06F
6HR MIN TEMP:  30; 6HR MAX TEMP:  60;

$$

ARZ050-053-066-070-073-111900-
SOUTHWEST ARKANSAS

CITY           SKY/WX    TMP DP  RH WIND       PRES   REMARKS
ARKADELPHIA    FAIR      67  28  23 S12       30.13F
CAMDEN         SUNNY     70  25  18 SW8       30.14F
TEXARKANA      SUNNY     68  24  19 SW12      30.15F
6HR MIN TEMP:  38; 6HR MAX TEMP:  68;

EL DORADO      SUNNY     66  32  28 SW9       30.17F
6HR MIN TEMP:  31; 6HR MAX TEMP:  67;

DE QUEEN       SUNNY     64  29  26 W7        30.12F
6HR MIN TEMP:  26; 6HR MAX TEMP:  64;

$$

ARZ056-057-069-111900-
SOUTHEAST ARKANSAS

CITY           SKY/WX    TMP DP  RH WIND       PRES   REMARKS
PINE BLUFF     SUNNY     66  28  24 SW13      30.11F
6HR MIN TEMP:  34; 6HR MAX TEMP:  66;

STUTTGART      SUNNY     65  32  29 SW15      30.09F
6HR MIN TEMP:  34; 6HR MAX TEMP:  65;

MONTICELLO     SUNNY     66  28  24 SW13      30.14F
6HR MIN TEMP:  40; 6HR MAX TEMP:  66;


$$






USA.gov is the U.S. government's official web portal to all federal, state and local government web resources and services.